Tracking 19634 objects as of 21-May-2019
HD Live streaming from Space Station
objects crossing your sky now

NTS 2

Track NTS 2 now!
NTS 2 is classified as:


NORAD ID: 10091
Int'l Code: 1977-053A
Perigee: 20,038.2 km
Apogee: 20,358.8 km
Inclination: 64.5 °
Period: 718.3 minutes
Semi major axis: 26569 km
RCS: 3.8343 m2 (large)
Launch date: June 23, 1977
Source: United States (US)
Launch site: AIR FORCE WESTERN TEST RANGE (AFWTR)
aabbcc
Your satellite tracking list
Your tracking list is empty




NASA's NSSDC Master Catalog

Two Line Element Set (TLE):
1 10091U 77053A   19140.91705425 -.00000078  00000-0  00000+0 0  9996
2 10091  64.5356   1.8099 0060349 228.6692  70.4136  2.00460070306870
Source of the keplerian elements: AFSPC